Year,Month,Day,Hour,Minute,Value (Times are PST for temperature in C)
2011,08,22,00,00,20.60
2011,08,22,00,01,20.60
2011,08,22,00,02,20.50
2011,08,22,00,03,20.40
2011,08,22,00,04,20.30
2011,08,22,00,05,20.30
2011,08,22,00,06,20.30
2011,08,22,00,07,20.30
2011,08,22,00,08,20.30
2011,08,22,00,09,20.30
2011,08,22,00,10,20.30
2011,08,22,00,11,20.30
2011,08,22,00,12,20.30
2011,08,22,00,13,20.30
2011,08,22,00,14,20.20
2011,08,22,00,15,20.20
2011,08,22,00,16,20.20
2011,08,22,00,17,20.10
2011,08,22,00,18,20.10
2011,08,22,00,19,20.20
2011,08,22,00,20,20.20
2011,08,22,00,21,20.20
2011,08,22,00,22,20.20
2011,08,22,00,23,20.20
2011,08,22,00,24,20.20
2011,08,22,00,25,20.30
2011,08,22,00,26,20.30
2011,08,22,00,27,20.30
2011,08,22,00,28,20.40
2011,08,22,00,29,20.40
2011,08,22,00,30,20.50
2011,08,22,00,31,20.50
2011,08,22,00,32,20.60
2011,08,22,00,33,20.70
2011,08,22,00,34,20.70
2011,08,22,00,35,20.70
2011,08,22,00,36,20.80
2011,08,22,00,37,20.80
2011,08,22,00,38,20.80
2011,08,22,00,39,20.80
2011,08,22,00,40,20.90
2011,08,22,00,41,20.90
2011,08,22,00,42,20.90
2011,08,22,00,43,21.00
2011,08,22,00,44,21.00
2011,08,22,00,45,20.90
2011,08,22,00,46,20.90
2011,08,22,00,47,20.90
2011,08,22,00,48,20.90
2011,08,22,00,49,20.90
2011,08,22,00,50,20.90
2011,08,22,00,51,20.90
2011,08,22,00,52,20.90
2011,08,22,00,53,20.90
2011,08,22,00,54,20.90
2011,08,22,00,55,20.90
2011,08,22,00,56,20.90
2011,08,22,00,57,20.90
2011,08,22,00,58,20.90
2011,08,22,00,59,20.90
2011,08,22,01,00,20.80
2011,08,22,01,01,20.90
2011,08,22,01,02,20.90
2011,08,22,01,03,20.80
2011,08,22,01,04,20.90
2011,08,22,01,05,20.90
2011,08,22,01,06,20.90
2011,08,22,01,07,20.90
2011,08,22,01,08,21.00
2011,08,22,01,09,21.00
2011,08,22,01,10,21.00
2011,08,22,01,11,21.00
2011,08,22,01,12,21.00
2011,08,22,01,13,21.10
2011,08,22,01,14,21.10
2011,08,22,01,15,21.10
2011,08,22,01,16,21.20
2011,08,22,01,17,21.20
2011,08,22,01,18,21.20
2011,08,22,01,19,21.20
2011,08,22,01,20,21.20
2011,08,22,01,21,21.20
2011,08,22,01,22,21.20
2011,08,22,01,23,21.20
2011,08,22,01,24,21.20
2011,08,22,01,25,21.20
2011,08,22,01,26,21.20
2011,08,22,01,27,21.20
2011,08,22,01,28,21.20
2011,08,22,01,29,21.20
2011,08,22,01,30,21.20
2011,08,22,01,31,21.20
2011,08,22,01,32,21.20
2011,08,22,01,33,21.20
2011,08,22,01,34,21.20
2011,08,22,01,35,21.20
2011,08,22,01,36,21.10
2011,08,22,01,37,21.10
2011,08,22,01,38,21.10
2011,08,22,01,39,21.10
2011,08,22,01,40,21.10
2011,08,22,01,41,21.10
2011,08,22,01,42,21.10
2011,08,22,01,43,21.10
2011,08,22,01,44,21.00
2011,08,22,01,45,21.00
2011,08,22,01,46,21.00
2011,08,22,01,47,21.00
2011,08,22,01,48,20.90
2011,08,22,01,49,20.90
2011,08,22,01,50,20.90
2011,08,22,01,51,20.90
2011,08,22,01,52,20.90
2011,08,22,01,53,20.80
2011,08,22,01,54,20.80
2011,08,22,01,55,20.80
2011,08,22,01,56,20.80
2011,08,22,01,57,20.80
2011,08,22,01,58,20.80
2011,08,22,01,59,20.80
2011,08,22,02,00,20.80
2011,08,22,02,01,20.80
2011,08,22,02,02,20.80
2011,08,22,02,03,20.80
2011,08,22,02,04,20.70
2011,08,22,02,05,20.70
2011,08,22,02,06,20.70
2011,08,22,02,07,20.70
2011,08,22,02,08,20.70
2011,08,22,02,09,20.70
2011,08,22,02,10,20.70
2011,08,22,02,11,20.70
2011,08,22,02,12,20.70
2011,08,22,02,13,20.70
2011,08,22,02,14,20.70
2011,08,22,02,15,20.70
2011,08,22,02,16,20.70
2011,08,22,02,17,20.70
2011,08,22,02,18,20.70
2011,08,22,02,19,20.70
2011,08,22,02,20,20.70
2011,08,22,02,21,20.70
2011,08,22,02,22,20.70
2011,08,22,02,23,20.70
2011,08,22,02,24,20.80
2011,08,22,02,25,20.80
2011,08,22,02,26,20.80
2011,08,22,02,27,20.80
2011,08,22,02,28,20.80
2011,08,22,02,29,20.80
2011,08,22,02,30,20.80
2011,08,22,02,31,20.70
2011,08,22,02,32,20.70
2011,08,22,02,33,20.70
2011,08,22,02,34,20.70
2011,08,22,02,35,20.70
2011,08,22,02,36,20.70
2011,08,22,02,37,20.70
2011,08,22,02,38,20.70
2011,08,22,02,39,20.70
2011,08,22,02,40,20.70
2011,08,22,02,41,20.70
2011,08,22,02,42,20.70
2011,08,22,02,43,20.70
2011,08,22,02,44,20.70
2011,08,22,02,45,20.70
2011,08,22,02,46,20.70
2011,08,22,02,47,20.70
2011,08,22,02,48,20.70
2011,08,22,02,49,20.70
2011,08,22,02,50,20.70
2011,08,22,02,51,20.70
2011,08,22,02,52,20.70
2011,08,22,02,53,20.70
2011,08,22,02,54,20.70
2011,08,22,02,55,20.70
2011,08,22,02,56,20.60
2011,08,22,02,57,20.60
2011,08,22,02,58,20.60
2011,08,22,02,59,20.60
2011,08,22,03,00,20.60
2011,08,22,03,01,20.60
2011,08,22,03,02,20.60
2011,08,22,03,03,20.60
2011,08,22,03,04,20.60
2011,08,22,03,05,20.60
2011,08,22,03,06,20.60
2011,08,22,03,07,20.60
2011,08,22,03,08,20.60
2011,08,22,03,09,20.60
2011,08,22,03,10,20.60
2011,08,22,03,11,20.60
2011,08,22,03,12,20.60
2011,08,22,03,13,20.60
2011,08,22,03,14,20.60
2011,08,22,03,15,20.60
2011,08,22,03,16,20.60
2011,08,22,03,17,20.60
2011,08,22,03,18,20.50
2011,08,22,03,19,20.50
2011,08,22,03,20,20.50
2011,08,22,03,21,20.50
2011,08,22,03,22,20.50
2011,08,22,03,23,20.50
2011,08,22,03,24,20.60
2011,08,22,03,25,20.60
2011,08,22,03,26,20.60
2011,08,22,03,27,20.60
2011,08,22,03,28,20.60
2011,08,22,03,29,20.60
2011,08,22,03,30,20.60
2011,08,22,03,31,20.60
2011,08,22,03,32,20.60
2011,08,22,03,33,20.60
2011,08,22,03,34,20.60
2011,08,22,03,35,20.60
2011,08,22,03,36,20.60
2011,08,22,03,37,20.60
2011,08,22,03,38,20.60
2011,08,22,03,39,20.60
2011,08,22,03,40,20.60
2011,08,22,03,41,20.60
2011,08,22,03,42,20.60
2011,08,22,03,43,20.70
2011,08,22,03,44,20.70
2011,08,22,03,45,20.70
2011,08,22,03,46,20.70
2011,08,22,03,47,20.70
2011,08,22,03,48,20.70
2011,08,22,03,49,20.80
2011,08,22,03,50,20.80
2011,08,22,03,51,20.80
2011,08,22,03,52,20.80
2011,08,22,03,53,20.80
2011,08,22,03,54,20.80
2011,08,22,03,55,20.80
2011,08,22,03,56,20.80
2011,08,22,03,57,20.90
2011,08,22,03,58,20.90
2011,08,22,03,59,20.90
2011,08,22,04,00,20.90
2011,08,22,04,01,20.90
2011,08,22,04,02,21.00
2011,08,22,04,03,21.00
2011,08,22,04,04,21.00
2011,08,22,04,05,21.00
2011,08,22,04,06,21.00
2011,08,22,04,07,21.00
2011,08,22,04,08,21.00
2011,08,22,04,09,21.00
2011,08,22,04,10,21.00
2011,08,22,04,11,21.00
2011,08,22,04,12,21.00
2011,08,22,04,13,21.00
2011,08,22,04,14,21.00
2011,08,22,04,15,20.90
2011,08,22,04,16,20.90
2011,08,22,04,17,20.90
2011,08,22,04,18,20.80
2011,08,22,04,19,20.80
2011,08,22,04,20,20.80
2011,08,22,04,21,20.80
2011,08,22,04,22,20.70
2011,08,22,04,23,20.70
2011,08,22,04,24,20.70
2011,08,22,04,25,20.60
2011,08,22,04,26,20.60
2011,08,22,04,27,20.60
2011,08,22,04,28,20.60
2011,08,22,04,29,20.50
2011,08,22,04,30,20.50
2011,08,22,04,31,20.50
2011,08,22,04,32,20.50
2011,08,22,04,33,20.50
2011,08,22,04,34,20.40
2011,08,22,04,35,20.40
2011,08,22,04,36,20.40
2011,08,22,04,37,20.40
2011,08,22,04,38,20.30
2011,08,22,04,39,20.30
2011,08,22,04,40,20.30
2011,08,22,04,41,20.30
2011,08,22,04,42,20.30
2011,08,22,04,43,20.30
2011,08,22,04,44,20.30
2011,08,22,04,45,20.30
2011,08,22,04,46,20.30
2011,08,22,04,47,20.30
2011,08,22,04,48,20.30
2011,08,22,04,49,20.30
2011,08,22,04,50,20.30
2011,08,22,04,51,20.30
2011,08,22,04,52,20.30
2011,08,22,04,53,20.30
2011,08,22,04,54,20.20
2011,08,22,04,55,20.30
2011,08,22,04,56,20.30
2011,08,22,04,57,20.20
2011,08,22,04,58,20.20
2011,08,22,04,59,20.20
2011,08,22,05,00,20.20
2011,08,22,05,01,20.20
2011,08,22,05,02,20.20
2011,08,22,05,03,20.20
2011,08,22,05,04,20.20
2011,08,22,05,05,20.20
2011,08,22,05,06,20.20
2011,08,22,05,07,20.20
2011,08,22,05,08,20.10
2011,08,22,05,09,20.10
2011,08,22,05,10,20.20
2011,08,22,05,11,20.20
2011,08,22,05,12,20.20
2011,08,22,05,13,20.20
2011,08,22,05,14,20.10
2011,08,22,05,15,20.10
2011,08,22,05,16,20.10
2011,08,22,05,17,20.10
2011,08,22,05,18,20.10
2011,08,22,05,19,20.10
2011,08,22,05,20,20.10
2011,08,22,05,21,20.10
2011,08,22,05,22,20.10
2011,08,22,05,23,20.00
2011,08,22,05,24,20.00
2011,08,22,05,25,20.00
2011,08,22,05,26,20.00
2011,08,22,05,27,19.90
2011,08,22,05,28,19.90
2011,08,22,05,29,19.90
2011,08,22,05,30,19.90
2011,08,22,05,31,19.90
2011,08,22,05,32,19.90
2011,08,22,05,33,19.80
2011,08,22,05,34,19.80
2011,08,22,05,35,19.80
2011,08,22,05,36,19.70
2011,08,22,05,37,19.70
2011,08,22,05,38,19.70
2011,08,22,05,39,19.70
2011,08,22,05,40,19.70
2011,08,22,05,41,19.60
2011,08,22,05,42,19.60
2011,08,22,05,43,19.60
2011,08,22,05,44,19.50
2011,08,22,05,45,19.50
2011,08,22,05,46,19.40
2011,08,22,05,47,19.40
2011,08,22,05,48,19.40
2011,08,22,05,49,19.40
2011,08,22,05,50,19.30
2011,08,22,05,51,19.30
2011,08,22,05,52,19.30
2011,08,22,05,53,19.20
2011,08,22,05,54,19.20
2011,08,22,05,55,19.10
2011,08,22,05,56,19.10
2011,08,22,05,57,19.00
2011,08,22,05,58,18.90
2011,08,22,05,59,18.90
2011,08,22,06,00,18.80
2011,08,22,06,01,18.80
2011,08,22,06,02,18.70
2011,08,22,06,03,18.70
2011,08,22,06,04,18.70
2011,08,22,06,05,18.60
2011,08,22,06,06,18.60
2011,08,22,06,07,18.50
2011,08,22,06,08,18.40
2011,08,22,06,09,18.40
2011,08,22,06,10,18.30
2011,08,22,06,11,18.20
2011,08,22,06,12,18.20
2011,08,22,06,13,18.20
2011,08,22,06,14,18.10
2011,08,22,06,15,18.10
2011,08,22,06,16,18.10
2011,08,22,06,17,18.00
2011,08,22,06,18,18.00
2011,08,22,06,19,18.00
2011,08,22,06,20,17.90
2011,08,22,06,21,17.90
2011,08,22,06,22,17.90
2011,08,22,06,23,17.90
2011,08,22,06,24,17.80
2011,08,22,06,25,17.80
2011,08,22,06,26,17.80
2011,08,22,06,27,17.80
2011,08,22,06,28,17.80
2011,08,22,06,29,17.80
2011,08,22,06,30,17.80
2011,08,22,06,31,17.80
2011,08,22,06,32,17.80
2011,08,22,06,33,17.80
2011,08,22,06,34,17.80
2011,08,22,06,35,17.80
2011,08,22,06,36,17.80
2011,08,22,06,37,17.80
2011,08,22,06,38,17.80
2011,08,22,06,39,17.80
2011,08,22,06,40,17.80
2011,08,22,06,41,17.80
2011,08,22,06,42,17.80
2011,08,22,06,43,17.80
2011,08,22,06,44,17.70
2011,08,22,06,45,17.70
2011,08,22,06,46,17.70
2011,08,22,06,47,17.70
2011,08,22,06,48,17.70
2011,08,22,06,49,17.70
2011,08,22,06,50,17.60
2011,08,22,06,51,17.60
2011,08,22,06,52,17.60
2011,08,22,06,53,17.60
2011,08,22,06,54,17.50
2011,08,22,06,55,17.50
2011,08,22,06,56,17.50
2011,08,22,06,57,17.50
2011,08,22,06,58,17.50
2011,08,22,06,59,17.50
2011,08,22,07,00,17.50
2011,08,22,07,01,17.40
2011,08,22,07,02,17.50
2011,08,22,07,03,17.50
2011,08,22,07,04,17.50
2011,08,22,07,05,17.50
2011,08,22,07,06,17.50
2011,08,22,07,07,17.50
2011,08,22,07,08,17.50
2011,08,22,07,09,17.50
2011,08,22,07,10,17.60
2011,08,22,07,11,17.50
2011,08,22,07,12,17.50
2011,08,22,07,13,17.60
2011,08,22,07,14,17.60
2011,08,22,07,15,17.60
2011,08,22,07,16,17.50
2011,08,22,07,17,17.50
2011,08,22,07,18,17.50
2011,08,22,07,19,17.50
2011,08,22,07,20,17.50
2011,08,22,07,21,17.50
2011,08,22,07,22,17.50
2011,08,22,07,23,17.60
2011,08,22,07,24,17.60
2011,08,22,07,25,17.60
2011,08,22,07,26,17.60
2011,08,22,07,27,17.60
2011,08,22,07,28,17.60
2011,08,22,07,29,17.60
2011,08,22,07,30,17.60
2011,08,22,07,31,17.60
2011,08,22,07,32,17.60
2011,08,22,07,33,17.60
2011,08,22,07,34,17.60
2011,08,22,07,35,17.60
2011,08,22,07,36,17.60
2011,08,22,07,37,17.60
2011,08,22,07,38,17.60
2011,08,22,07,39,17.60
2011,08,22,07,40,17.60
2011,08,22,07,41,17.60
2011,08,22,07,42,17.70
2011,08,22,07,43,17.60
2011,08,22,07,44,17.70
2011,08,22,07,45,17.70
2011,08,22,07,46,17.70
2011,08,22,07,47,17.70
2011,08,22,07,48,17.70
2011,08,22,07,49,17.70
2011,08,22,07,50,17.60
2011,08,22,07,51,17.60
2011,08,22,07,52,17.60
2011,08,22,07,53,17.60
2011,08,22,07,54,17.60
2011,08,22,07,55,17.60
2011,08,22,07,56,17.60
2011,08,22,07,57,17.60
2011,08,22,07,58,17.60
2011,08,22,07,59,17.50
2011,08,22,08,00,17.50
2011,08,22,08,01,17.50
2011,08,22,08,02,17.50
2011,08,22,08,03,17.50
2011,08,22,08,04,17.50
2011,08,22,08,05,17.50
2011,08,22,08,06,17.50
2011,08,22,08,07,17.50
2011,08,22,08,08,17.50
2011,08,22,08,09,17.40
2011,08,22,08,10,17.40
2011,08,22,08,11,17.40
2011,08,22,08,12,17.40
2011,08,22,08,13,17.40
2011,08,22,08,14,17.40
2011,08,22,08,15,17.40
2011,08,22,08,16,17.40
2011,08,22,08,17,17.40
2011,08,22,08,18,17.40
2011,08,22,08,19,17.40
2011,08,22,08,20,17.40
2011,08,22,08,21,17.40
2011,08,22,08,22,17.40
2011,08,22,08,23,17.40
2011,08,22,08,24,17.40
2011,08,22,08,25,17.40
2011,08,22,08,26,17.50
2011,08,22,08,27,17.50
2011,08,22,08,28,17.50
2011,08,22,08,29,17.50
2011,08,22,08,30,17.50
2011,08,22,08,31,17.50
2011,08,22,08,32,17.50
2011,08,22,08,33,17.50
2011,08,22,08,34,17.50
2011,08,22,08,35,17.40
2011,08,22,08,36,17.40
2011,08,22,08,37,17.40
2011,08,22,08,38,17.40
2011,08,22,08,39,17.40
2011,08,22,08,40,17.40
2011,08,22,08,41,17.40
2011,08,22,08,42,17.40
2011,08,22,08,43,17.40
2011,08,22,08,44,17.40
2011,08,22,08,45,17.40
2011,08,22,08,46,17.40
2011,08,22,08,47,17.40
2011,08,22,08,48,17.40
2011,08,22,08,49,17.40
2011,08,22,08,50,17.40
2011,08,22,08,51,17.40
2011,08,22,08,52,17.40
2011,08,22,08,53,17.40
2011,08,22,08,54,17.40
2011,08,22,08,55,17.40
2011,08,22,08,56,17.40
2011,08,22,08,57,17.40
2011,08,22,08,58,17.40
2011,08,22,08,59,17.40
2011,08,22,09,00,17.40
2011,08,22,09,01,17.30
2011,08,22,09,02,17.30
2011,08,22,09,03,17.30
2011,08,22,09,04,17.30
2011,08,22,09,05,17.30
2011,08,22,09,06,17.30
2011,08,22,09,07,17.30
2011,08,22,09,08,17.30
2011,08,22,09,09,17.30
2011,08,22,09,10,17.30
2011,08,22,09,11,17.30
2011,08,22,09,12,17.30
2011,08,22,09,13,17.30
2011,08,22,09,14,17.30
2011,08,22,09,15,17.30
2011,08,22,09,16,17.30
2011,08,22,09,17,17.30
2011,08,22,09,18,17.30
2011,08,22,09,19,17.30
2011,08,22,09,20,17.30
2011,08,22,09,21,17.30
2011,08,22,09,22,17.30
2011,08,22,09,23,17.30
2011,08,22,09,24,17.40
2011,08,22,09,25,17.40
2011,08,22,09,26,17.40
2011,08,22,09,27,17.40
2011,08,22,09,28,17.40
2011,08,22,09,29,17.40
2011,08,22,09,30,17.40
2011,08,22,09,31,17.50
2011,08,22,09,32,17.50
2011,08,22,09,33,17.50
2011,08,22,09,34,17.40
2011,08,22,09,35,17.40
2011,08,22,09,36,17.50
2011,08,22,09,37,17.50
2011,08,22,09,38,17.50
2011,08,22,09,39,17.60
2011,08,22,09,40,17.60
2011,08,22,09,41,17.60
2011,08,22,09,42,17.60
2011,08,22,09,43,17.60
2011,08,22,09,44,17.60
2011,08,22,09,45,17.70
2011,08,22,09,46,17.70
2011,08,22,09,47,17.70
2011,08,22,09,48,17.70
2011,08,22,09,49,17.80
2011,08,22,09,50,17.80
2011,08,22,09,51,17.80
2011,08,22,09,52,17.80
2011,08,22,09,53,17.90
2011,08,22,09,54,17.90
2011,08,22,09,55,17.90
2011,08,22,09,56,17.90
2011,08,22,09,57,17.90
2011,08,22,09,58,17.90
2011,08,22,09,59,18.00
2011,08,22,10,00,18.00
2011,08,22,10,01,18.00
2011,08,22,10,02,18.00
2011,08,22,10,03,18.00
2011,08,22,10,04,18.00
2011,08,22,10,05,18.00
2011,08,22,10,06,18.00
2011,08,22,10,07,18.00
2011,08,22,10,08,18.00
2011,08,22,10,09,18.00
2011,08,22,10,10,18.10
2011,08,22,10,11,18.10
2011,08,22,10,12,18.10
2011,08,22,10,13,18.10
2011,08,22,10,14,18.10
2011,08,22,10,15,18.00
2011,08,22,10,16,18.00
2011,08,22,10,17,18.00
2011,08,22,10,18,18.00
2011,08,22,10,19,18.00
2011,08,22,10,20,17.90
2011,08,22,10,21,17.90
2011,08,22,10,22,17.90
2011,08,22,10,23,17.90
2011,08,22,10,24,17.90
2011,08,22,10,25,17.90
2011,08,22,10,26,17.90
2011,08,22,10,27,17.90
2011,08,22,10,28,17.90
2011,08,22,10,29,17.90
2011,08,22,10,30,17.90
2011,08,22,10,31,17.90
2011,08,22,10,32,17.90
2011,08,22,10,33,17.90
2011,08,22,10,34,17.90
2011,08,22,10,35,17.90
2011,08,22,10,36,17.90
2011,08,22,10,37,17.90
2011,08,22,10,38,17.90
2011,08,22,10,39,17.90
2011,08,22,10,40,17.90
2011,08,22,10,41,18.00
2011,08,22,10,42,18.00
2011,08,22,10,43,18.00
2011,08,22,10,44,18.00
2011,08,22,10,45,18.10
2011,08,22,10,46,18.10
2011,08,22,10,47,18.10
2011,08,22,10,48,18.10
2011,08,22,10,49,18.10
2011,08,22,10,50,18.10
2011,08,22,10,51,18.10
2011,08,22,10,52,18.10
2011,08,22,10,53,18.20
2011,08,22,10,54,18.20
2011,08,22,10,55,18.20
2011,08,22,10,56,18.30
2011,08,22,10,57,18.30
2011,08,22,10,58,18.30
2011,08,22,10,59,18.40
2011,08,22,11,00,18.40
2011,08,22,11,01,18.40
2011,08,22,11,02,18.40
2011,08,22,11,03,18.50
2011,08,22,11,04,18.50
2011,08,22,11,05,18.50
2011,08,22,11,06,18.60
2011,08,22,11,07,18.60
2011,08,22,11,08,18.60
2011,08,22,11,09,18.70
2011,08,22,11,10,18.70
2011,08,22,11,11,18.80
2011,08,22,11,12,18.80
2011,08,22,11,13,18.80
2011,08,22,11,14,18.90
2011,08,22,11,15,18.90
2011,08,22,11,16,18.90
2011,08,22,11,17,19.00
2011,08,22,11,18,19.10
2011,08,22,11,19,19.10
2011,08,22,11,20,19.10
2011,08,22,11,21,19.20
2011,08,22,11,22,19.20
2011,08,22,11,23,19.20
2011,08,22,11,24,19.20
2011,08,22,11,25,19.30
2011,08,22,11,26,19.30
2011,08,22,11,27,19.30
2011,08,22,11,28,19.40
2011,08,22,11,29,19.40
2011,08,22,11,30,19.50
2011,08,22,11,31,19.50
2011,08,22,11,32,19.60
2011,08,22,11,33,19.60
2011,08,22,11,34,19.60
2011,08,22,11,35,19.60
2011,08,22,11,36,19.60
2011,08,22,11,37,19.60
2011,08,22,11,38,19.50
2011,08,22,11,39,19.50
2011,08,22,11,40,19.60
2011,08,22,11,41,19.60
2011,08,22,11,42,19.60
2011,08,22,11,43,19.60
2011,08,22,11,44,19.60
2011,08,22,11,45,19.50
2011,08,22,11,46,19.50
2011,08,22,11,47,19.50
2011,08,22,11,48,19.50
2011,08,22,11,49,19.50
2011,08,22,11,50,19.50
2011,08,22,11,51,19.40
2011,08,22,11,52,19.40
2011,08,22,11,53,19.40
2011,08,22,11,54,19.40
2011,08,22,11,55,19.40
2011,08,22,11,56,19.40
2011,08,22,11,57,19.40
2011,08,22,11,58,19.40
2011,08,22,11,59,19.40
2011,08,22,12,00,19.50
2011,08,22,12,01,19.50
2011,08,22,12,02,19.50
2011,08,22,12,03,19.60
2011,08,22,12,04,19.60
2011,08,22,12,05,19.60
2011,08,22,12,06,19.50
2011,08,22,12,07,19.50
2011,08,22,12,08,19.40
2011,08,22,12,09,19.40
2011,08,22,12,10,19.40
2011,08,22,12,11,19.40
2011,08,22,12,12,19.40
2011,08,22,12,13,19.30
2011,08,22,12,14,19.30
2011,08,22,12,15,19.30
2011,08,22,12,16,19.30
2011,08,22,12,17,19.30
2011,08,22,12,18,19.30
2011,08,22,12,19,19.40
2011,08,22,12,20,19.40
2011,08,22,12,21,19.40
2011,08,22,12,22,19.40
2011,08,22,12,23,19.50
2011,08,22,12,24,19.50
2011,08,22,12,25,19.50
2011,08,22,12,26,19.40
2011,08,22,12,27,19.40
2011,08,22,12,28,19.40
2011,08,22,12,29,19.50
2011,08,22,12,30,19.50
2011,08,22,12,31,19.60
2011,08,22,12,32,19.60
2011,08,22,12,33,19.70
2011,08,22,12,34,19.70
2011,08,22,12,35,19.80
2011,08,22,12,36,19.90
2011,08,22,12,37,19.90
2011,08,22,12,38,19.90
2011,08,22,12,39,19.90
2011,08,22,12,40,19.90
2011,08,22,12,41,19.80
2011,08,22,12,42,19.80
2011,08,22,12,43,19.80
2011,08,22,12,44,19.80
2011,08,22,12,45,19.70
2011,08,22,12,46,19.70
2011,08,22,12,47,19.60
2011,08,22,12,48,19.50
2011,08,22,12,49,19.40
2011,08,22,12,50,19.30
2011,08,22,12,51,19.30
2011,08,22,12,52,19.30
2011,08,22,12,53,19.30
2011,08,22,12,54,19.30
2011,08,22,12,55,19.30
2011,08,22,12,56,19.30
2011,08,22,12,57,19.20
2011,08,22,12,58,19.20
2011,08,22,12,59,19.20
2011,08,22,13,00,19.20
2011,08,22,13,01,19.20
2011,08,22,13,02,19.20
2011,08,22,13,03,19.20
2011,08,22,13,04,19.20
2011,08,22,13,05,19.30
2011,08,22,13,06,19.30
2011,08,22,13,07,19.30
2011,08,22,13,08,19.30
2011,08,22,13,09,19.30
2011,08,22,13,10,19.30
2011,08,22,13,11,19.30
2011,08,22,13,12,19.20
2011,08,22,13,13,19.20
2011,08,22,13,14,19.20
2011,08,22,13,15,19.20
2011,08,22,13,16,19.30
2011,08,22,13,17,19.30
2011,08,22,13,18,19.30
2011,08,22,13,19,19.30
2011,08,22,13,20,19.30
2011,08,22,13,21,19.30
2011,08,22,13,22,19.40
2011,08,22,13,23,19.40
2011,08,22,13,24,19.50
2011,08,22,13,25,19.60
2011,08,22,13,26,19.60
2011,08,22,13,27,19.70
2011,08,22,13,28,19.80
2011,08,22,13,29,19.80
2011,08,22,13,30,19.90
2011,08,22,13,31,19.80
2011,08,22,13,32,19.80
2011,08,22,13,33,19.80
2011,08,22,13,34,19.80
2011,08,22,13,35,19.90
2011,08,22,13,36,19.90
2011,08,22,13,37,20.00
2011,08,22,13,38,20.00
2011,08,22,13,39,20.10
2011,08,22,13,40,20.10
2011,08,22,13,41,20.20
2011,08,22,13,42,20.20
2011,08,22,13,43,20.20
2011,08,22,13,44,20.20
2011,08,22,13,45,20.20
2011,08,22,13,46,20.30
2011,08,22,13,47,20.40
2011,08,22,13,48,20.40
2011,08,22,13,49,20.40
2011,08,22,13,50,20.30
2011,08,22,13,51,20.20
2011,08,22,13,52,20.20
2011,08,22,13,53,20.20
2011,08,22,13,54,20.30
2011,08,22,13,55,20.30
2011,08,22,13,56,20.20
2011,08,22,13,57,20.20
2011,08,22,13,58,20.20
2011,08,22,13,59,20.20
2011,08,22,14,00,20.20
2011,08,22,14,01,20.20
2011,08,22,14,02,20.20
2011,08,22,14,03,20.20
2011,08,22,14,04,20.30
2011,08,22,14,05,20.40
2011,08,22,14,06,20.40
2011,08,22,14,07,20.50
2011,08,22,14,08,20.60
2011,08,22,14,09,20.70
2011,08,22,14,10,20.70
2011,08,22,14,11,20.70
2011,08,22,14,12,20.70
2011,08,22,14,13,20.80
2011,08,22,14,14,20.80
2011,08,22,14,15,20.80
2011,08,22,14,16,20.70
2011,08,22,14,17,20.70
2011,08,22,14,18,20.70
2011,08,22,14,19,20.70
2011,08,22,14,20,20.80
2011,08,22,14,21,20.80
2011,08,22,14,22,20.90
2011,08,22,14,23,21.00
2011,08,22,14,24,21.10
2011,08,22,14,25,21.10
2011,08,22,14,26,21.20
2011,08,22,14,27,21.30
2011,08,22,14,28,21.40
2011,08,22,14,29,21.30
2011,08,22,14,30,21.40
2011,08,22,14,31,21.40
2011,08,22,14,32,21.40
2011,08,22,14,33,21.50
2011,08,22,14,34,21.60
2011,08,22,14,35,21.60
2011,08,22,14,36,21.70
2011,08,22,14,37,21.70
2011,08,22,14,38,21.70
2011,08,22,14,39,21.70
2011,08,22,14,40,21.80
2011,08,22,14,41,21.80
2011,08,22,14,42,21.80
2011,08,22,14,43,21.80
2011,08,22,14,44,21.70
2011,08,22,14,45,21.70
2011,08,22,14,46,21.70
2011,08,22,14,47,21.60
2011,08,22,14,48,21.60
2011,08,22,14,49,21.50
2011,08,22,14,50,21.50
2011,08,22,14,51,21.40
2011,08,22,14,52,21.30
2011,08,22,14,53,21.20
2011,08,22,14,54,21.10
2011,08,22,14,55,21.00
2011,08,22,14,56,20.90
2011,08,22,14,57,20.80
2011,08,22,14,58,20.80
2011,08,22,14,59,20.70
2011,08,22,15,00,20.60
2011,08,22,15,01,20.50
2011,08,22,15,02,20.40
2011,08,22,15,03,20.30
2011,08,22,15,04,20.20
2011,08,22,15,05,20.10
2011,08,22,15,06,20.00
2011,08,22,15,07,19.90
2011,08,22,15,08,19.80
2011,08,22,15,09,19.70
2011,08,22,15,10,19.50
2011,08,22,15,11,19.40
2011,08,22,15,12,19.30
2011,08,22,15,13,19.20
2011,08,22,15,14,19.20
2011,08,22,15,15,19.20
2011,08,22,15,16,19.20
2011,08,22,15,17,19.20
2011,08,22,15,18,19.20
2011,08,22,15,19,19.10
2011,08,22,15,20,19.10
2011,08,22,15,21,19.10
2011,08,22,15,22,19.00
2011,08,22,15,23,18.90
2011,08,22,15,24,18.80
2011,08,22,15,25,18.80
2011,08,22,15,26,18.60
2011,08,22,15,27,18.40
2011,08,22,15,28,18.10
2011,08,22,15,29,17.80
2011,08,22,15,30,17.70
2011,08,22,15,31,17.70
2011,08,22,15,32,17.60
2011,08,22,15,33,17.60
2011,08,22,15,34,17.50
2011,08,22,15,35,17.50
2011,08,22,15,36,17.40
2011,08,22,15,37,17.40
2011,08,22,15,38,17.40
2011,08,22,15,39,17.40
2011,08,22,15,40,17.40
2011,08,22,15,41,17.40
2011,08,22,15,42,17.40
2011,08,22,15,43,17.40
2011,08,22,15,44,17.40
2011,08,22,15,45,17.40
2011,08,22,15,46,17.40
2011,08,22,15,47,17.40
2011,08,22,15,48,17.40
2011,08,22,15,49,17.40
2011,08,22,15,50,17.40
2011,08,22,15,51,17.30
2011,08,22,15,52,17.30
2011,08,22,15,53,17.40
2011,08,22,15,54,17.40
2011,08,22,15,55,17.40
2011,08,22,15,56,17.40
2011,08,22,15,57,17.40
2011,08,22,15,58,17.40
2011,08,22,15,59,17.50
2011,08,22,16,00,17.50
2011,08,22,16,01,17.60
2011,08,22,16,02,17.70
2011,08,22,16,03,17.70
2011,08,22,16,04,17.80
2011,08,22,16,05,17.90
2011,08,22,16,06,17.90
2011,08,22,16,07,18.00
2011,08,22,16,08,18.10
2011,08,22,16,09,18.20
2011,08,22,16,10,18.30
2011,08,22,16,11,18.30
2011,08,22,16,12,18.40
2011,08,22,16,13,18.50
2011,08,22,16,14,18.50
2011,08,22,16,15,18.50
2011,08,22,16,16,18.60
2011,08,22,16,17,18.60
2011,08,22,16,18,18.60
2011,08,22,16,19,18.60
2011,08,22,16,20,18.60
2011,08,22,16,21,18.60
2011,08,22,16,22,18.60
2011,08,22,16,23,18.60
2011,08,22,16,24,18.50
2011,08,22,16,25,18.50
2011,08,22,16,26,18.50
2011,08,22,16,27,18.60
2011,08,22,16,28,18.60
2011,08,22,16,29,18.60
2011,08,22,16,30,18.60
2011,08,22,16,31,18.60
2011,08,22,16,32,18.50
2011,08,22,16,33,18.40
2011,08,22,16,34,18.30
2011,08,22,16,35,18.10
2011,08,22,16,36,17.80
2011,08,22,16,37,17.70
2011,08,22,16,38,17.50
2011,08,22,16,39,17.40
2011,08,22,16,40,17.30
2011,08,22,16,41,17.20
2011,08,22,16,42,17.10
2011,08,22,16,43,17.10
2011,08,22,16,44,17.10
2011,08,22,16,45,17.10
2011,08,22,16,46,17.10
2011,08,22,16,47,17.10
2011,08,22,16,48,17.10
2011,08,22,16,49,17.00
2011,08,22,16,50,17.00
2011,08,22,16,51,17.10
2011,08,22,16,52,17.10
2011,08,22,16,53,17.10
2011,08,22,16,54,17.10
2011,08,22,16,55,17.10
2011,08,22,16,56,17.10
2011,08,22,16,57,17.10
2011,08,22,16,58,17.20
2011,08,22,16,59,17.20
2011,08,22,17,00,17.10
2011,08,22,17,01,17.10
2011,08,22,17,02,17.10
2011,08,22,17,03,17.20
2011,08,22,17,04,17.20
2011,08,22,17,05,17.20
2011,08,22,17,06,17.20
2011,08,22,17,07,17.20
2011,08,22,17,08,17.20
2011,08,22,17,09,17.20
2011,08,22,17,10,17.30
2011,08,22,17,11,17.30
2011,08,22,17,12,17.30
2011,08,22,17,13,17.30
2011,08,22,17,14,17.30
2011,08,22,17,15,17.40
2011,08,22,17,16,17.40
2011,08,22,17,17,17.40
2011,08,22,17,18,17.40
2011,08,22,17,19,17.50